STARLINK-5894 (55965 NORAD) Tracking and Keplerian Element Data

This shows tracking and keplerian element data for the satellite.

Feedback or suggestion? Click here.




ElementValue
Catalog55965
NameSTARLINK-5894
Epoch Orbit840
Epoch Day126.92924034
Epoch Year2023
RAAN40.0214
Inclination70.0017
Eccentricity0.0003269
Argument of Perigee266.5592
Mean Anonmoly93.523
Mean Motion15.69948293
Decay Rate7.059E-05
L11 55965U 23037BD 23126.92924034 .00007059 00000+0 60364-4 0 9995
L22 55965 70.0017 40.0214 0003269 266.5592 93.5230 15.69948293 8403



Live tracking and technical data element details for STARLINK-5894 (NORAD 55965). STARLINK-5894 can be tracked NOW for your location showing map with azimuth and elevation plus other details from your city location.







IsCatalogInMostPopularTable: catalog: 55965, numindb: 42
Update: records affected: 1



GetName: 55965 STARLINK-5894

Hit Count: updated at: Tue, 06 Jun 2023 02:49:05 GMT